Weather History for Kolkata, India

Change the Weather History Date:

Friday, January 4, 2013

  Actual Average Record
Temperature  
Mean Temperature 66 °F -  
Max Temperature 76 °F 73 °F 80 °F (2008)
Min Temperature 57 °F 53 °F 50 °F (1998)
Cooling Degree Days 2    
Growing Degree Days 16 (Base 50)    
Moisture  
Dew Point 58 °F    
Average Humidity 76    
Maximum Humidity 94    
Minimum Humidity 40    
Precipitation  
Precipitation 0.00 in - - ()
Sea Level Pressure  
Sea Level Pressure 29.92 in    
Wind  
Wind Speed 2 mph ()    
Max Wind Speed 9 mph    
Max Gust Speed -    
Visibility 0.9 miles    
Events Fog    
Averages and records for this station are not official NWS values.
T = Trace of Precipitation, MM = Missing Value Source: Averaged Metar Reports

Daily Weather History Graph

Daily Weather History Graph

Search for Another Location

Airport:

Trip Planner

Search our weather history database for the weather conditions in past years. The results will help you decide how hot, cold, wet, or windy it might be!

Date:

Astronomy

Jan. 04, 2013 Rise Set
Actual Time 6:17 AM IST 5:05 PM IST
Civil Twilight 5:52 AM IST 5:29 PM IST
Nautical Twilight 5:25 AM IST 5:57 PM IST
Astronomical Twilight 4:57 AM IST 6:24 PM IST
Moon 11:19 PM IST (1/4) 10:33 AM IST (1/4)
Length of Visible Light 11h 36m
Length of Day
10h 47m
Waning Gibbous, 60% of the Moon is Illuminated
Jan 4
Waning Gibbous
Jan 5
Last Quarter
Jan 12
New
Jan 19
First Quarter
Jan 27
Full

Hourly Weather History & Observations

Time (IST) Temp. Dew Point Humidity Pressure Visibility Wind Dir Wind Speed Gust Speed Precip Events Conditions
12:20 AM 62.6 °F 60.8 °F 94% 29.92 in 0.3 mi Calm Calm - N/A Fog Fog
12:50 AM 62.6 °F 60.8 °F 94% 29.92 in 0.3 mi Calm Calm - N/A Fog Fog
1:20 AM 60.8 °F 59.0 °F 94% 29.92 in 0.3 mi Calm Calm - N/A Fog Fog
1:50 AM 59.0 °F 57.2 °F 94% 29.92 in 0.3 mi Calm Calm - N/A Fog Fog
2:20 AM 59.0 °F 57.2 °F 94% 29.92 in 0.4 mi NNE 3.5 mph - N/A Fog Fog
2:30 AM 62 °F 59 °F 87% 29.95 in 1 mi Calm Calm - -   Mist
2:50 AM 59.0 °F 57.2 °F 94% 29.92 in 0.4 mi NNE 3.5 mph - N/A Fog Fog
3:20 AM 59.0 °F 57.2 °F 94% 29.92 in 0.5 mi NNE 3.5 mph - N/A Fog Fog
3:50 AM 59.0 °F 57.2 °F 94% 29.92 in 0.6 mi NNE 3.5 mph - N/A Fog Fog
4:20 AM 59.0 °F 57.2 °F 94% 29.92 in 0.4 mi Calm Calm - N/A Fog Fog
4:50 AM 59.0 °F 57.2 °F 94% 29.92 in 0.4 mi Calm Calm - N/A Fog Fog
5:20 AM 59.0 °F 57.2 °F 94% 29.95 in 0.4 mi Calm Calm - N/A Fog Fog
5:30 AM 59 °F 57 °F 91% 29.96 in 1 mi Calm Calm - -   Mist
6:20 AM 59.0 °F 57.2 °F 94% 29.95 in 0.4 mi Calm Calm - N/A Fog Fog
6:50 AM 59.0 °F 57.2 °F 94% 29.98 in 0.4 mi Calm Calm - N/A Fog Fog
7:20 AM 60.8 °F 57.2 °F 88% 29.98 in 0.4 mi Calm Calm - N/A Fog Fog
7:50 AM 62.6 °F 59.0 °F 88% 30.01 in 0.4 mi Calm Calm - N/A Fog Fog
8:20 AM 64.4 °F 60.8 °F 88% 30.04 in 0.6 mi NNE 5.8 mph - N/A Fog Shallow Fog
8:30 AM 64 °F 62 °F 90% 30.03 in 1 mi North 2.3 mph - -   Mist
8:50 AM 64.4 °F 60.8 °F 88% 30.04 in 0.6 mi NNE 5.8 mph - N/A Fog Shallow Fog
9:20 AM 66.2 °F 62.6 °F 88% 30.04 in 0.7 mi NNE 6.9 mph - N/A   Scattered Clouds
10:20 AM 68.0 °F 59.0 °F 73% 30.01 in 1.2 mi NNE 9.2 mph - N/A   Haze
10:50 AM 69.8 °F 59.0 °F 68% 30.01 in 1.4 mi NNE 9.2 mph - N/A   Haze
11:20 AM 69.8 °F 59.0 °F 68% 29.98 in 1.4 mi NNE 9.2 mph - N/A   Haze
11:30 AM 72 °F 56 °F 47% 29.98 in 1 mi North 2.3 mph - -   Haze
11:50 AM 71.6 °F 57.2 °F 60% 29.95 in 1.4 mi NNE 8.1 mph - N/A   Haze
12:20 PM 73.4 °F 55.4 °F 53% 29.92 in 1.4 mi NNE 8.1 mph - N/A   Haze
12:50 PM 73.4 °F 55.4 °F 53% 29.89 in 1.4 mi NE 5.8 mph - N/A   Haze
1:20 PM 75.2 °F 55.4 °F 50% 29.89 in 1.4 mi NE 5.8 mph - N/A   Haze
1:50 PM 75.2 °F 55.4 °F 50% 29.89 in 1.4 mi NNE 5.8 mph - N/A   Haze
2:20 PM 75.2 °F 55.4 °F 50% 29.89 in 1.4 mi NE 4.6 mph - N/A   Haze
2:30 PM 76 °F 56 °F 40% 29.89 in 1 mi NE 2.3 mph - -   Haze
2:50 PM 77.0 °F 57.2 °F 50% 29.86 in 1.4 mi NNE 5.8 mph - N/A   Haze
3:20 PM 75.2 °F 57.2 °F 53% 29.86 in 1.4 mi North 5.8 mph - N/A   Haze
3:50 PM 75.2 °F 57.2 °F 53% 29.86 in 1.4 mi NNE 4.6 mph - N/A   Haze
4:20 PM 73.4 °F 57.2 °F 57% 29.86 in 1.3 mi NNE 4.6 mph - N/A   Haze
4:50 PM 73.4 °F 57.2 °F 57% 29.86 in 1.2 mi North 4.6 mph - N/A   Haze
5:20 PM 71.6 °F 57.2 °F 60% 29.86 in 1.2 mi North 4.6 mph - N/A   Haze
5:30 PM 71 °F 60 °F 60% 29.88 in 1 mi North 2.3 mph - -   Haze
5:50 PM 71.6 °F 59.0 °F 64% 29.86 in 1.2 mi Calm Calm - N/A   Haze
6:20 PM 71.6 °F 59.0 °F 64% 29.89 in 1.2 mi Calm Calm - N/A   Haze
6:50 PM 69.8 °F 59.0 °F 68% 29.89 in 1.2 mi Calm Calm - N/A   Haze
7:20 PM 69.8 °F 59.0 °F 68% 29.89 in 1.2 mi Calm Calm - N/A   Haze
7:50 PM 68.0 °F 59.0 °F 73% 29.89 in 1.2 mi Calm Calm - N/A   Haze
8:20 PM 68.0 °F 59.0 °F 73% 29.89 in 1.2 mi Calm Calm - N/A   Haze
8:30 PM 63 °F 60 °F 85% 29.93 in 1 mi Calm Calm - -   Haze
8:50 PM 66.2 °F 59.0 °F 78% 29.89 in 1.2 mi Calm Calm - N/A   Haze
9:20 PM 64.4 °F 59.0 °F 83% 29.92 in 1.2 mi Calm Calm - N/A   Haze
9:50 PM 64.4 °F 59.0 °F 83% 29.92 in 1.1 mi Calm Calm - N/A   Mist
10:20 PM 62.6 °F 59.0 °F 88% 29.89 in 1.1 mi North 3.5 mph - N/A   Mist
10:50 PM 62.6 °F 59.0 °F 88% 29.89 in 1.1 mi North 3.5 mph - N/A   Mist
11:20 PM 62.6 °F 59.0 °F 88% 29.89 in 1.1 mi NNE 3.5 mph - N/A   Mist
11:30 PM 63 °F 59 °F 83% 29.93 in 1 mi North 2.3 mph - -   Haze
11:50 PM 62.6 °F 59.0 °F 88% 29.89 in 1.1 mi North 4.6 mph - N/A   Mist